When you browse on this site, cookies collect data to enhance your experience and personalize the content and advertising you see.
Visit our Privacy Policy to learn more. By continuing to use the site, you agree to this use of cookies and data.
  • In Hungary
  • List of Countries
  • For 7 days
  • Water Temperature
  • Satellite Maps
  • Weather Map
  • News
  • Weather Widgets
  • user-avatar
    Login

    Hourly Weather Pato Branco

    Today, 17 November, Saturday

    Time Temperature Precipitation Wind Pressure Humidity
    00:00 +21°C° 0 mm 4 mps 694 mmHg 74%
    01:00 +20°C° 0 mm 4 mps 694 mmHg 74%
    02:00 +20°C° 0 mm 4 mps 694 mmHg 74%
    03:00 +19°C° 0 mm 4 mps 694 mmHg 74%
    04:00 +19°C° 0 mm 4 mps 694 mmHg 73%
    05:00 +18°C° 0 mm 4 mps 694 mmHg 73%
    06:00 +20°C° 0 mm 4 mps 694 mmHg 68%
    07:00 +21°C° 0 mm 5 mps 695 mmHg 63%
    08:00 +23°C° 0 mm 5 mps 695 mmHg 57%
    09:00 +26°C° 0 mm 5 mps 695 mmHg 52%
    10:00 +28°C° 0 mm 4 mps 695 mmHg 48%
    11:00 +30°C° 0 mm 4 mps 695 mmHg 43%
    12:00 +32°C° 0 mm 4 mps 694 mmHg 44%
    13:00 +32°C° 0 mm 4 mps 694 mmHg 45%
    14:00 +33°C° 0 mm 4 mps 693 mmHg 46%
    15:00 +31°C° 0 mm 3 mps 693 mmHg 52%
    16:00 +30°C° 0 mm 3 mps 692 mmHg 59%
    17:00 +29°C° 0 mm 2 mps 691 mmHg 65%
    18:00 +27°C° 0 mm 2 mps 692 mmHg 70%
    19:00 +26°C° 0 mm 2 mps 692 mmHg 74%
    20:00 +24°C° 0 mm 2 mps 692 mmHg 78%
    21:00 +24°C° 0 mm 2 mps 692 mmHg 78%
    22:00 +24°C° 0 mm 3 mps 692 mmHg 78%
    23:00 +24°C° 0 mm 3 mps 692 mmHg 78%

    Tomorrow, 18 November, Sunday

    Time Temperature Precipitation Wind Pressure Humidity
    00:00 +24°C° 0 mm 3 mps 692 mmHg 80%
    01:00 +22°C° 0 mm 3 mps 691 mmHg 82%
    02:00 +22°C° 0 mm 3 mps 691 mmHg 84%
    03:00 +22°C° 1.5 mm 3 mps 691 mmHg 88%
    04:00 +21°C° 1.5 mm 2 mps 691 mmHg 92%
    05:00 +22°C° 1.5 mm 1 mps 691 mmHg 96%
    06:00 +21°C° 6 mm 2 mps 692 mmHg 95%
    07:00 +21°C° 6 mm 2 mps 692 mmHg 95%
    08:00 +21°C° 6 mm 2 mps 693 mmHg 95%
    09:00 +21°C° 5.1 mm 2 mps 693 mmHg 95%
    10:00 +21°C° 5.1 mm 2 mps 694 mmHg 95%
    11:00 +21°C° 5.1 mm 2 mps 694 mmHg 96%
    12:00 +23°C° 0.8 mm 1 mps 693 mmHg 94%
    13:00 +23°C° 0.8 mm 1 mps 693 mmHg 93%
    14:00 +21°C° 0.8 mm 0 mps 693 mmHg 91%
    15:00 +23°C° 0 mm 1 mps 693 mmHg 93%
    16:00 +23°C° 0 mm 1 mps 693 mmHg 94%
    17:00 +22°C° 0 mm 1 mps 692 mmHg 95%
    18:00 +22°C° 0 mm 1 mps 693 mmHg 96%
    19:00 +22°C° 0 mm 1 mps 693 mmHg 97%
    20:00 +21°C° 0 mm 1 mps 693 mmHg 98%
    21:00 +20°C° 0 mm 2 mps 693 mmHg 98%
    22:00 +19°C° 0 mm 2 mps 693 mmHg 98%
    23:00 +19°C° 0 mm 2 mps 694 mmHg 98%

    Day after tomorrow, 19 November, Monday

    Time Temperature Precipitation Wind Pressure Humidity
    00:00 +19°C° 0 mm 2 mps 693 mmHg 97%
    01:00 +18°C° 0 mm 2 mps 693 mmHg 97%
    02:00 +18°C° 0 mm 2 mps 693 mmHg 96%
    03:00 +18°C° 0 mm 2 mps 693 mmHg 96%
    04:00 +17°C° 0 mm 2 mps 693 mmHg 96%
    05:00 +17°C° 0 mm 2 mps 693 mmHg 96%
    06:00 +19°C° 0 mm 2 mps 693 mmHg 88%
    07:00 +21°C° 0 mm 2 mps 694 mmHg 81%
    08:00 +25°C° 0 mm 3 mps 695 mmHg 73%
    09:00 +27°C° 0 mm 2 mps 695 mmHg 67%
    10:00 +28°C° 0 mm 2 mps 695 mmHg 62%
    11:00 +30°C° 0 mm 1 mps 695 mmHg 56%
    12:00 +30°C° 0.1 mm 2 mps 694 mmHg 56%
    13:00 +30°C° 0.1 mm 2 mps 693 mmHg 57%
    14:00 +30°C° 0.1 mm 2 mps 693 mmHg 57%
    15:00 +28°C° 0.4 mm 2 mps 692 mmHg 65%
    16:00 +27°C° 0.4 mm 1 mps 692 mmHg 73%
    17:00 +26°C° 0.4 mm 1 mps 692 mmHg 81%
    18:00 +24°C° 0.1 mm 2 mps 692 mmHg 84%
    19:00 +23°C° 0.1 mm 2 mps 693 mmHg 87%
    20:00 +20°C° 0.1 mm 2 mps 693 mmHg 90%
    21:00 +19°C° 0 mm 2 mps 693 mmHg 90%
    22:00 +18°C° 0 mm 3 mps 694 mmHg 90%
    23:00 +17°C° 0 mm 3 mps 694 mmHg 90%

    20 November, Tuesday

    Time Temperature Precipitation Wind Pressure Humidity
    00:00 +17°C° 0 mm 3 mps 693 mmHg 89%
    01:00 +17°C° 0 mm 3 mps 693 mmHg 89%
    02:00 +16°C° 0 mm 3 mps 693 mmHg 89%
    03:00 +16°C° 0 mm 3 mps 693 mmHg 89%
    04:00 +16°C° 0 mm 3 mps 693 mmHg 89%
    05:00 +16°C° 0 mm 2 mps 694 mmHg 89%
    06:00 +18°C° 0 mm 2 mps 694 mmHg 83%
    07:00 +20°C° 0 mm 2 mps 695 mmHg 76%
    08:00 +23°C° 0 mm 2 mps 696 mmHg 70%
    09:00 +26°C° 0 mm 2 mps 696 mmHg 64%
    10:00 +28°C° 0 mm 2 mps 696 mmHg 58%
    11:00 +30°C° 0 mm 1 mps 696 mmHg 52%
    12:00 +30°C° 0 mm 1 mps 695 mmHg 49%
    13:00 +31°C° 0 mm 1 mps 694 mmHg 47%
    14:00 +31°C° 0 mm 1 mps 694 mmHg 44%
    15:00 +30°C° 0 mm 1 mps 693 mmHg 51%
    16:00 +29°C° 0 mm 1 mps 693 mmHg 58%
    17:00 +28°C° 0 mm 1 mps 693 mmHg 65%
    18:00 +26°C° 0 mm 1 mps 693 mmHg 69%
    19:00 +24°C° 0 mm 2 mps 693 mmHg 73%
    20:00 +21°C° 0 mm 2 mps 694 mmHg 77%
    21:00 +21°C° 0 mm 2 mps 694 mmHg 79%
    22:00 +20°C° 0 mm 3 mps 694 mmHg 80%
    23:00 +20°C° 0 mm 4 mps 695 mmHg 81%

    21 November, Wednesday

    Time Temperature Precipitation Wind Pressure Humidity
    00:00 +19°C° 0 mm 4 mps 694 mmHg 82%
    01:00 +19°C° 0 mm 3 mps 694 mmHg 83%
    02:00 +18°C° 0 mm 3 mps 694 mmHg 83%
    03:00 +18°C° 0 mm 3 mps 694 mmHg 84%
    04:00 +18°C° 0 mm 3 mps 694 mmHg 85%
    05:00 +17°C° 0 mm 3 mps 694 mmHg 85%
    06:00 +19°C° 0 mm 3 mps 695 mmHg 80%
    07:00 +21°C° 0 mm 3 mps 695 mmHg 74%
    08:00 +23°C° 0 mm 4 mps 696 mmHg 69%
    09:00 +25°C° 0 mm 3 mps 696 mmHg 65%
    10:00 +27°C° 0 mm 3 mps 696 mmHg 62%
    11:00 +28°C° 0 mm 3 mps 695 mmHg 58%
    12:00 +28°C° 0.2 mm 3 mps 695 mmHg 58%
    13:00 +29°C° 0.2 mm 3 mps 694 mmHg 59%
    14:00 +29°C° 0.2 mm 3 mps 694 mmHg 59%
    15:00 +28°C° 0.2 mm 2 mps 693 mmHg 64%
    16:00 +27°C° 0.2 mm 2 mps 693 mmHg 68%
    17:00 +26°C° 0.2 mm 2 mps 693 mmHg 72%
    18:00 +25°C° 0 mm 2 mps 693 mmHg 76%
    19:00 +23°C° 0 mm 2 mps 693 mmHg 80%
    20:00 +21°C° 0 mm 2 mps 693 mmHg 83%
    21:00 +20°C° 0 mm 3 mps 693 mmHg 84%
    22:00 +20°C° 0 mm 3 mps 693 mmHg 86%
    23:00 +20°C° 0 mm 3 mps 693 mmHg 87%

    22 November, Thursday

    Time Temperature Precipitation Wind Pressure Humidity
    00:00 +19°C° 0 mm 3 mps 693 mmHg 88%
    01:00 +19°C° 0 mm 3 mps 693 mmHg 89%
    02:00 +19°C° 0 mm 3 mps 692 mmHg 90%
    03:00 +19°C° 0 mm 3 mps 693 mmHg 90%
    04:00 +19°C° 0 mm 3 mps 693 mmHg 90%
    05:00 +18°C° 0 mm 3 mps 693 mmHg 90%
    06:00 +20°C° 0 mm 3 mps 694 mmHg 83%
    07:00 +22°C° 0 mm 3 mps 694 mmHg 76%
    08:00 +25°C° 0 mm 3 mps 695 mmHg 70%
    09:00 +26°C° 0.4 mm 3 mps 694 mmHg 70%
    10:00 +27°C° 0.4 mm 3 mps 694 mmHg 69%
    11:00 +27°C° 0.4 mm 3 mps 694 mmHg 69%
    12:00 +27°C° 0.9 mm 3 mps 693 mmHg 69%
    13:00 +28°C° 0.9 mm 3 mps 692 mmHg 68%
    14:00 +28°C° 0.9 mm 2 mps 692 mmHg 68%
    15:00 +27°C° 0.1 mm 2 mps 691 mmHg 71%
    16:00 +27°C° 0.1 mm 2 mps 691 mmHg 74%
    17:00 +26°C° 0.1 mm 1 mps 691 mmHg 78%
    18:00 +24°C° 0.3 mm 1 mps 691 mmHg 83%
    19:00 +23°C° 0.3 mm 1 mps 691 mmHg 88%
    20:00 +21°C° 0.3 mm 1 mps 691 mmHg 93%
    21:00 +21°C° 0.1 mm 1 mps 691 mmHg 95%
    22:00 +20°C° 0.1 mm 1 mps 691 mmHg 96%
    23:00 +19°C° 0.1 mm 2 mps 692 mmHg 97%
    Show more